Hourly Weather Bolshie Selischi

Today, 15 June, Tuesday

Time Temperature Precipitation Wind Pressure Humidity
00:00 +15°C° 0 mm 1 mps 749 mmHg 90%
01:00 +15°C° 0 mm 1 mps 749 mmHg 91%
02:00 +13°C° 0 mm 0 mps 749 mmHg 90%
03:00 +14°C° 0 mm 0 mps 749 mmHg 88%
04:00 +15°C° 0 mm 0 mps 749 mmHg 86%
05:00 +16°C° 0 mm 0 mps 749 mmHg 84%
06:00 +17°C° 0 mm 0 mps 749 mmHg 78%
07:00 +21°C° 0 mm 1 mps 748 mmHg 71%
08:00 +23°C° 0 mm 1 mps 748 mmHg 65%
09:00 +24°C° 0 mm 1 mps 748 mmHg 61%
10:00 +25°C° 0 mm 2 mps 748 mmHg 58%
11:00 +26°C° 0 mm 2 mps 747 mmHg 54%
12:00 +25°C° 0.1 mm 2 mps 747 mmHg 56%
13:00 +25°C° 0.1 mm 2 mps 747 mmHg 58%
14:00 +25°C° 0.1 mm 2 mps 746 mmHg 60%
15:00 +25°C° 0.1 mm 2 mps 746 mmHg 60%
16:00 +25°C° 0.1 mm 2 mps 746 mmHg 61%
17:00 +25°C° 0.1 mm 2 mps 745 mmHg 61%
18:00 +23°C° 0 mm 2 mps 745 mmHg 67%
19:00 +21°C° 0 mm 2 mps 745 mmHg 73%
20:00 +19°C° 0 mm 2 mps 745 mmHg 78%
21:00 +18°C° 0 mm 2 mps 745 mmHg 80%
22:00 +17°C° 0 mm 2 mps 745 mmHg 82%
23:00 +16°C° 0 mm 2 mps 745 mmHg 84%

Tomorrow, 16 June, Wednesday

Time Temperature Precipitation Wind Pressure Humidity
00:00 +15°C° 0 mm 2 mps 745 mmHg 87%
01:00 +15°C° 0 mm 2 mps 746 mmHg 89%
02:00 +14°C° 0 mm 2 mps 746 mmHg 92%
03:00 +15°C° 0 mm 2 mps 746 mmHg 91%
04:00 +15°C° 0 mm 2 mps 746 mmHg 89%
05:00 +16°C° 0 mm 2 mps 747 mmHg 88%
06:00 +17°C° 0 mm 3 mps 747 mmHg 79%
07:00 +19°C° 0 mm 3 mps 747 mmHg 70%
08:00 +20°C° 0 mm 4 mps 748 mmHg 61%
09:00 +21°C° 0 mm 4 mps 748 mmHg 55%
10:00 +22°C° 0 mm 4 mps 748 mmHg 48%
11:00 +23°C° 0 mm 4 mps 748 mmHg 41%
12:00 +23°C° 0 mm 4 mps 749 mmHg 39%
13:00 +23°C° 0 mm 4 mps 749 mmHg 37%
14:00 +23°C° 0 mm 4 mps 749 mmHg 36%
15:00 +23°C° 0 mm 4 mps 749 mmHg 39%
16:00 +24°C° 0 mm 3 mps 749 mmHg 42%
17:00 +22°C° 0 mm 3 mps 750 mmHg 45%
18:00 +20°C° 0 mm 2 mps 750 mmHg 52%
19:00 +18°C° 0 mm 2 mps 751 mmHg 59%
20:00 +16°C° 0 mm 2 mps 751 mmHg 66%
21:00 +15°C° 0 mm 2 mps 751 mmHg 66%
22:00 +14°C° 0 mm 1 mps 752 mmHg 67%
23:00 +13°C° 0 mm 1 mps 752 mmHg 68%

Day after tomorrow, 17 June, Thursday

Time Temperature Precipitation Wind Pressure Humidity
00:00 +13°C° 0 mm 1 mps 753 mmHg 69%
01:00 +12°C° 0 mm 1 mps 753 mmHg 70%
02:00 +11°C° 0 mm 1 mps 754 mmHg 71%
03:00 +12°C° 0 mm 1 mps 754 mmHg 71%
04:00 +13°C° 0 mm 1 mps 754 mmHg 70%
05:00 +14°C° 0 mm 1 mps 755 mmHg 69%
06:00 +16°C° 0 mm 1 mps 755 mmHg 63%
07:00 +19°C° 0 mm 1 mps 755 mmHg 56%
08:00 +21°C° 0 mm 1 mps 755 mmHg 49%
09:00 +22°C° 0 mm 1 mps 755 mmHg 46%
10:00 +23°C° 0 mm 1 mps 756 mmHg 42%
11:00 +24°C° 0 mm 2 mps 756 mmHg 38%
12:00 +25°C° 0 mm 2 mps 756 mmHg 38%
13:00 +25°C° 0 mm 2 mps 756 mmHg 38%
14:00 +26°C° 0 mm 2 mps 756 mmHg 37%
15:00 +26°C° 0 mm 2 mps 756 mmHg 41%
16:00 +26°C° 0 mm 2 mps 755 mmHg 44%
17:00 +25°C° 0 mm 2 mps 755 mmHg 48%
18:00 +23°C° 0 mm 2 mps 755 mmHg 56%
19:00 +20°C° 0 mm 2 mps 756 mmHg 64%
20:00 +18°C° 0 mm 2 mps 756 mmHg 72%
21:00 +17°C° 0 mm 2 mps 756 mmHg 74%
22:00 +18°C° 0 mm 1 mps 756 mmHg 76%
23:00 +16°C° 0 mm 1 mps 756 mmHg 78%

18 June, Friday

Time Temperature Precipitation Wind Pressure Humidity
00:00 +15°C° 0 mm 1 mps 757 mmHg 80%
01:00 +15°C° 0 mm 1 mps 757 mmHg 81%
02:00 +14°C° 0 mm 1 mps 757 mmHg 83%
03:00 +15°C° 0 mm 1 mps 757 mmHg 81%
04:00 +16°C° 0 mm 1 mps 757 mmHg 80%
05:00 +18°C° 0 mm 1 mps 758 mmHg 78%
06:00 +19°C° 0 mm 1 mps 758 mmHg 71%
07:00 +21°C° 0 mm 1 mps 758 mmHg 65%
08:00 +23°C° 0 mm 2 mps 758 mmHg 58%
09:00 +25°C° 0 mm 2 mps 758 mmHg 53%
10:00 +26°C° 0 mm 2 mps 758 mmHg 49%
11:00 +27°C° 0 mm 2 mps 757 mmHg 44%
12:00 +27°C° 0 mm 2 mps 757 mmHg 44%
13:00 +28°C° 0 mm 3 mps 757 mmHg 43%
14:00 +28°C° 0 mm 3 mps 757 mmHg 43%
15:00 +28°C° 0 mm 3 mps 757 mmHg 46%
16:00 +28°C° 0 mm 3 mps 756 mmHg 50%
17:00 +27°C° 0 mm 3 mps 756 mmHg 54%
18:00 +25°C° 0 mm 3 mps 756 mmHg 62%
19:00 +23°C° 0 mm 2 mps 756 mmHg 70%
20:00 +20°C° 0 mm 2 mps 756 mmHg 79%
21:00 +19°C° 0 mm 2 mps 756 mmHg 80%
22:00 +18°C° 0 mm 2 mps 756 mmHg 81%
23:00 +18°C° 0 mm 3 mps 756 mmHg 83%

19 June, Saturday

Time Temperature Precipitation Wind Pressure Humidity
00:00 +17°C° 0 mm 3 mps 757 mmHg 85%
01:00 +17°C° 0 mm 3 mps 757 mmHg 87%
02:00 +16°C° 0 mm 3 mps 757 mmHg 89%
03:00 +17°C° 0 mm 2 mps 757 mmHg 87%
04:00 +17°C° 0 mm 2 mps 757 mmHg 86%
05:00 +18°C° 0 mm 2 mps 757 mmHg 84%
06:00 +20°C° 0 mm 3 mps 757 mmHg 76%
07:00 +22°C° 0 mm 3 mps 757 mmHg 69%
08:00 +24°C° 0 mm 3 mps 757 mmHg 62%
09:00 +26°C° 0 mm 3 mps 757 mmHg 58%
10:00 +27°C° 0 mm 3 mps 757 mmHg 53%
11:00 +28°C° 0 mm 3 mps 757 mmHg 49%
12:00 +28°C° 0 mm 3 mps 756 mmHg 48%
13:00 +29°C° 0 mm 3 mps 756 mmHg 47%
14:00 +29°C° 0 mm 3 mps 756 mmHg 46%
15:00 +29°C° 0 mm 3 mps 756 mmHg 49%
16:00 +29°C° 0 mm 3 mps 756 mmHg 52%
17:00 +28°C° 0 mm 3 mps 755 mmHg 55%
18:00 +26°C° 0 mm 2 mps 755 mmHg 64%
19:00 +25°C° 0 mm 2 mps 755 mmHg 73%
20:00 +23°C° 0 mm 2 mps 755 mmHg 82%
21:00 +21°C° 0 mm 2 mps 755 mmHg 84%
22:00 +20°C° 0 mm 2 mps 756 mmHg 86%
23:00 +19°C° 0 mm 2 mps 756 mmHg 87%

20 June, Sunday

Time Temperature Precipitation Wind Pressure Humidity
00:00 +18°C° 0 mm 2 mps 756 mmHg 88%
01:00 +18°C° 0 mm 2 mps 756 mmHg 90%
02:00 +17°C° 0 mm 2 mps 756 mmHg 91%
03:00 +18°C° 0 mm 2 mps 756 mmHg 88%
04:00 +18°C° 0 mm 2 mps 756 mmHg 86%
05:00 +19°C° 0 mm 2 mps 756 mmHg 84%
06:00 +21°C° 0 mm 2 mps 756 mmHg 77%
07:00 +24°C° 0 mm 2 mps 756 mmHg 71%
08:00 +26°C° 0 mm 2 mps 756 mmHg 64%
09:00 +27°C° 0 mm 2 mps 756 mmHg 59%
10:00 +28°C° 0 mm 2 mps 755 mmHg 55%
11:00 +29°C° 0 mm 2 mps 755 mmHg 51%
12:00 +30°C° 0 mm 2 mps 755 mmHg 49%
13:00 +30°C° 0 mm 3 mps 755 mmHg 48%
14:00 +30°C° 0 mm 3 mps 754 mmHg 46%
15:00 +30°C° 0 mm 3 mps 754 mmHg 49%
16:00 +30°C° 0 mm 3 mps 754 mmHg 51%
17:00 +29°C° 0 mm 2 mps 754 mmHg 54%
18:00 +27°C° 0 mm 2 mps 754 mmHg 61%
19:00 +25°C° 0 mm 2 mps 754 mmHg 69%
20:00 +23°C° 0 mm 2 mps 754 mmHg 77%
21:00 +21°C° 0 mm 2 mps 754 mmHg 79%
22:00 +20°C° 0 mm 2 mps 754 mmHg 82%
23:00 +19°C° 0 mm 2 mps 754 mmHg 84%
Show more